Regional Weather Roundup
Issued by NWS

Home | Current Version | Previous Version | Text Only | Print | Product List | Glossary Off
Versions: 1 2 3 4 5 6 7 8 9 10 11 12 13 14 15 16 17 18 19 20 21 22 23 24 25 26 27 28 29 30 31 32 33 34 35 36 37 38 39 40 41 42 43 44 45 46 47 48 49 50

000
ASUS45 KBOU 052107
RWRCO

WEATHER ROUNDUP FOR COLORADO
NATIONAL WEATHER SERVICE DENVER/BOULDER CO
200 PM MST THU MAR 05 2015

NOTE: "FAIR" INDICATES FEW OR NO CLOUDS BELOW 12000 FEET WITH NO
SIGNIFICANT WEATHER AND/OR OBSTRUCTIONS TO VISIBILITY.

COZ001>005-013-030-031-052200-
...NORTHWEST COLORADO...

CITY           SKY/WX    TMP DP  RH WIND       PRES   REMARKS
CRAIG          NOT AVBL
HAYDEN         SUNNY     30   9  40 CALM      30.33F
MEEKER         SUNNY     40  18  41 S8        30.32F
MOUNT WERNER   NOT AVBL
STEAMBOAT SPGS SUNNY     30  11  45 CALM      30.34S
WALDEN         MOSUNNY   30   9  40 S15       30.25S WCI  19
$$

COZ006>008-011-052200-
...WEST CENTRAL VALLEYS...

CITY           SKY/WX    TMP DP  RH WIND       PRES   REMARKS
GRAND JUNCTION SUNNY     43  13  29 MISG      30.37F
MONTROSE       SUNNY     40  15  36 CALM      30.38F
EAGLE          MOSUNNY   36  12  38 CALM      30.34F
RIFLE          SUNNY     40  12  32 NW6       30.36F
DELTA          SUNNY     45  13  28 NE3       30.37F
NUCLA          SUNNY     41  10  28 NW6       30.40F
$$

COZ017>023-064>068-052200-
...SOUTHWEST COLORADO...

CITY           SKY/WX    TMP DP  RH WIND       PRES   REMARKS
DURANGO        SUNNY     35  11  36 E7        30.32F WCI  29
CORTEZ         SUNNY     45  19  35 W9        30.35F
PAGOSA SPRINGS SUNNY     38  -1  19 S6        30.32S
TELLURIDE      SUNNY     34  -7  17 W12       30.34S WCI  25
WOLF CREEK PAS SUNNY     19  12  73 SW12      30.31F WCI   7
$$

COZ009-010-012-014-032>034-037-058>063-052200-
...CENTRAL COLORADO...

CITY           SKY/WX    TMP DP  RH WIND       PRES   REMARKS
ASPEN          MOSUNNY   35   7  31 N5        30.30F WCI  31
BUENA VISTA    SUNNY     36   7  29 CALM      30.20F
COPPER MTN     SUNNY     23   3  42 W17G25    30.24R WCI   9
BERTHOUD PASS  NOT AVBL
COTTONWOOD PAS SUNNY     36  -9  14 W15G28    30.22R
GUNNISON       SUNNY     18   1  49 E3        30.38F
KREMMLING      MOSUNNY   25   9  50 CALM      30.33F
LEADVILLE      MOSUNNY   24   5  44 NW20G29   30.23F WCI  10
SALIDA         SUNNY     43   5  21 SW20G25   30.28F
SUNLIGHT       SUNNY     25  18  74 SW3         N/A
WILKERSON PASS PTSUNNY   25  -2  30 W6        30.23S WCI  18
$$

COZ069>075-052200-
...SAN LUIS VALLEY/SANGRE DE CRISTO MOUNTAINS...

CITY           SKY/WX    TMP DP  RH WIND       PRES   REMARKS
ALAMOSA        SUNNY     34   5  29 VRB6      30.29F WCI  29
LA VETA PASS   MOSUNNY   30   0  27 S21G31    30.20S WCI  17
SAGUACHE       SUNNY     32  10  40 S6        30.29F WCI  26
$$

COZ035-036-038>040-052200-
...NORTHERN COLORADO FRONT RANGE...

CITY           SKY/WX    TMP DP  RH WIND       PRES   REMARKS
DENVER INTL AP PTSUNNY   34  22  61 NE9       30.18F WCI  27
DMNS CITY PARK   N/A     34  16  47 NE8       30.18S WCI  28
AURORA         PTSUNNY   41  10  27 NE5       30.18S
FRONT RANGE AP PTSUNNY   36  28  75 N6        30.19S
ERIE MUNI ARPT CLOUDY    27  10  49 NE3       30.20F
BOULDER MUN AP CLOUDY    30  10  43 NW3       30.20S
CENTENNIAL     CLOUDY    43   4  19 E3        30.16F
BROOMFIELD     NOT AVBL
FORT COLLINS   PTSUNNY   32  18  55 N3        30.22S
LONGMONT       PTSUNNY   38  12  34 CALM      30.23S
$$

COZ041-046-047-076>085-087-088-052200-
...PIKES PEAK/PALMER DIVIDE AND SOUTHERN FOOTHILLS...

CITY           SKY/WX    TMP DP  RH WIND       PRES   REMARKS
COLO. SPRINGS  PTSUNNY   34  23  64 SE8       30.20S WCI  27
A. F. ACADEMY  PTSUNNY   37   2  22 VRB3      30.17S
ELLICOTT       NOT AVBL
FALCON         MOSUNNY   36   5  28 CALM      30.19F
FORT CARSON    MOSUNNY   31  20  62 SE6       30.19F WCI  25
LIMON          SUNNY     30  20  66 SE7       30.21F WCI  23
MONUMENT HILL  PTSUNNY   36  12  38 S3        30.16F
TRINIDAD       SUNNY     42  25  50 SE3       30.19F
$$

COZ042>045-048>051-090-091-052200-
...NORTHEAST COLORADO...

CITY           SKY/WX    TMP DP  RH WIND       PRES   REMARKS
GREELEY ARPT   PTSUNNY   36  16  44 CALM      30.20F
AKRON          MOSUNNY   43   6  21 NW8       30.20F
BURLINGTON     MOSUNNY   43  14  31 SW16      30.24F
WRAY           CLOUDY    49   7  18 W16       30.21F
STERLING       MOSUNNY   45  14  29 W10       30.20S
HOLYOKE        NOT AVBL
FORT MORGAN    MOSUNNY   44   2  17 SE5       30.22S
$$

COZ086-089-092>099-052200-
...SOUTHEAST COLORADO...

CITY           SKY/WX    TMP DP  RH WIND       PRES   REMARKS
PUEBLO         PTSUNNY   41  23  48 E10       30.21F
LA JUNTA       MOSUNNY   44  15  31 SE9       30.23F
LAMAR          MOSUNNY   48   9  20 S10       30.24F
SPRINGFIELD      N/A     44   7  21 SW7       30.25F
$$



USA.gov is the U.S. government's official web portal to all federal, state and local government web resources and services.